Weather History for Shawnee, OK

Change the Weather History Date:

Tuesday, July 23, 2013

  Actual Average (KTIK) Record (KTIK)
Temperature  
Mean Temperature 89 °F -  
Max Temperature 98 °F 90 °F 103 °F (2011)
Min Temperature 80 °F 70 °F 64 °F (2006)
Cooling Degree Days 24    
Growing Degree Days 39 (Base 50)    
Moisture  
Dew Point 77 °F    
Average Humidity 66    
Maximum Humidity 84    
Minimum Humidity 50    
Precipitation  
Precipitation 0.00 in - - ()
Sea Level Pressure  
Sea Level Pressure 29.90 in    
Wind  
Wind Speed 9 mph (SSW)    
Max Wind Speed 16 mph    
Max Gust Speed 21 mph    
Visibility 10 miles    
Events      
Averages and records for this station are not official NWS values.
T = Trace of Precipitation, MM = Missing Value Source: NWS Daily Summary

Daily Weather History Graph

Daily Weather History Graph

Search for Another Location

Airport:

Trip Planner

Search our weather history database for the weather conditions in past years. The results will help you decide how hot, cold, wet, or windy it might be!

Date:

Astronomy

Jul. 23, 2013 Rise Set
Actual Time 6:29 AM CDT 8:38 PM CDT
Civil Twilight 6:01 AM CDT 9:06 PM CDT
Nautical Twilight 5:26 AM CDT 9:41 PM CDT
Astronomical Twilight 4:48 AM CDT 10:19 PM CDT
Moon 9:13 PM CDT (7/23) 7:35 AM CDT (7/23)
Length of Visible Light 15h 05m
Length of Day
14h 08m
Full, 99% of the Moon is Illuminated
Jul 23
Full
Jul 29
Last Quarter
Aug 6
New
Aug 14
First Quarter
Aug 20
Full

Hourly Weather History & Observations

Time (CDT) Temp. Heat Index Dew Point Humidity Pressure Visibility Wind Dir Wind Speed Gust Speed Precip Events Conditions
12:15 AM 86.0 °F 96.9 °F 77.0 °F 74% 29.92 in 10.0 mi SSW 9.2 mph - N/A   Clear
12:35 AM 86.0 °F 95.1 °F 75.2 °F 70% 29.92 in 10.0 mi SSW 9.2 mph - N/A   Clear
12:55 AM 86.0 °F 95.1 °F 75.2 °F 70% 29.92 in 10.0 mi SSW 9.2 mph - N/A   Clear
1:15 AM 86.0 °F 95.1 °F 75.2 °F 70% 29.92 in 10.0 mi SSW 8.1 mph - N/A   Clear
1:35 AM 84.2 °F 92.3 °F 75.2 °F 74% 29.92 in 10.0 mi SSW 10.4 mph - N/A   Clear
1:55 AM 84.2 °F 92.3 °F 75.2 °F 74% 29.90 in 10.0 mi SSW 11.5 mph - N/A   Clear
2:15 AM 84.2 °F 90.9 °F 73.4 °F 70% 29.90 in 10.0 mi SSW 12.7 mph - N/A   Clear
2:35 AM 84.2 °F 90.9 °F 73.4 °F 70% 29.89 in 10.0 mi SSW 9.2 mph - N/A   Clear
2:55 AM 82.4 °F 88.2 °F 73.4 °F 74% 29.89 in 10.0 mi SSW 12.7 mph - N/A   Clear
3:15 AM 82.4 °F 88.2 °F 73.4 °F 74% 29.90 in 10.0 mi SSW 8.1 mph - N/A   Clear
3:35 AM 82.4 °F 88.2 °F 73.4 °F 74% 29.90 in 10.0 mi SSW 8.1 mph - N/A   Clear
3:55 AM 82.4 °F 88.2 °F 73.4 °F 74% 29.91 in 10.0 mi South 6.9 mph - N/A   Clear
4:15 AM 82.4 °F 88.2 °F 73.4 °F 74% 29.91 in 10.0 mi South 6.9 mph - N/A   Clear
4:35 AM 82.4 °F 88.2 °F 73.4 °F 74% 29.91 in 10.0 mi SSW 6.9 mph - N/A   Clear
4:55 AM 80.6 °F 85.4 °F 73.4 °F 79% 29.91 in 10.0 mi SSW 8.1 mph - N/A   Clear
5:15 AM 80.6 °F 85.4 °F 73.4 °F 79% 29.91 in 10.0 mi SSW 8.1 mph - N/A   Clear
5:35 AM 80.6 °F 85.4 °F 73.4 °F 79% 29.91 in 10.0 mi SSW 5.8 mph - N/A   Clear
5:55 AM 80.6 °F 86.2 °F 75.2 °F 84% 29.92 in 10.0 mi SSW 6.9 mph - N/A   Clear
6:15 AM 80.6 °F 86.2 °F 75.2 °F 84% 29.92 in 10.0 mi SSW 6.9 mph - N/A   Clear
6:35 AM 80.6 °F 85.4 °F 73.4 °F 79% 29.92 in 10.0 mi SSW 5.8 mph - N/A   Clear
6:55 AM 80.6 °F 85.4 °F 73.4 °F 79% 29.93 in 10.0 mi SSW 4.6 mph - N/A   Clear
7:15 AM 80.6 °F 86.2 °F 75.2 °F 84% 29.94 in 10.0 mi South 6.9 mph - N/A   Clear
7:35 AM 80.6 °F 86.2 °F 75.2 °F 84% 29.94 in 10.0 mi SSW 8.1 mph - N/A   Clear
7:55 AM 82.4 °F 89.5 °F 75.2 °F 79% 29.94 in 10.0 mi SSW 8.1 mph - N/A   Clear
8:15 AM 82.4 °F 89.5 °F 75.2 °F 79% 29.94 in 10.0 mi SW 8.1 mph - N/A   Clear
8:35 AM 84.2 °F 92.3 °F 75.2 °F 74% 29.94 in 10.0 mi SW 9.2 mph - N/A   Clear
8:55 AM 86.0 °F 95.1 °F 75.2 °F 70% 29.95 in 10.0 mi SW 9.2 mph - N/A   Clear
9:15 AM 87.8 °F 99.7 °F 77.0 °F 70% 29.95 in 10.0 mi SW 8.1 mph - N/A   Clear
9:35 AM 87.8 °F 99.7 °F 77.0 °F 70% 29.96 in 10.0 mi SW 12.7 mph 16.1 mph N/A   Clear
9:55 AM 91.4 °F 105.1 °F 77.0 °F 63% 29.96 in 10.0 mi SW 11.5 mph - N/A   Clear
10:15 AM 91.4 °F 105.1 °F 77.0 °F 63% 29.96 in 10.0 mi SW 10.4 mph - N/A   Clear
10:35 AM 91.4 °F 105.1 °F 77.0 °F 63% 29.96 in 10.0 mi SW 9.2 mph - N/A   Clear
10:55 AM 91.4 °F 105.1 °F 77.0 °F 63% 29.95 in 10.0 mi SW 9.2 mph - N/A   Clear
11:15 AM 91.4 °F 107.2 °F 78.8 °F 66% 29.94 in 10.0 mi SSW 9.2 mph - N/A   Clear
11:35 AM 95.0 °F 109.7 °F 77.0 °F 56% 29.94 in 10.0 mi SW 13.8 mph - N/A   Clear
11:55 AM 95.0 °F 112.2 °F 78.8 °F 59% 29.94 in 10.0 mi SW 8.1 mph - N/A   Clear
12:15 PM 96.8 °F 114.8 °F 78.8 °F 56% 29.96 in 10.0 mi SW 8.1 mph - N/A   Clear
12:35 PM 96.8 °F 112.2 °F 77.0 °F 53% 29.95 in 10.0 mi WSW 9.2 mph - N/A   Clear
12:55 PM 96.8 °F 112.2 °F 77.0 °F 53% 29.95 in 10.0 mi West 10.4 mph - N/A   Clear
1:15 PM 96.8 °F 114.8 °F 78.8 °F 56% 29.94 in 10.0 mi SW 9.2 mph - N/A   Clear
1:35 PM 96.8 °F 114.8 °F 78.8 °F 56% 29.94 in 10.0 mi WSW 9.2 mph - N/A   Clear
1:55 PM 98.6 °F 117.2 °F 78.8 °F 53% 29.92 in 10.0 mi WSW 8.1 mph 16.1 mph N/A   Clear
2:15 PM 98.6 °F 120.3 °F 80.6 °F 56% 29.91 in 10.0 mi SSW 10.4 mph - N/A   Clear
2:35 PM 96.8 °F 114.8 °F 78.8 °F 56% 29.91 in 10.0 mi SSW 9.2 mph 16.1 mph N/A   Clear
3:15 PM 98.6 °F 117.2 °F 78.8 °F 53% 29.89 in 10.0 mi SW 10.4 mph - N/A   Scattered Clouds
3:35 PM 98.6 °F 114.4 °F 77.0 °F 50% 29.89 in 10.0 mi SW 11.5 mph - N/A   Clear
3:55 PM 98.6 °F 117.2 °F 78.8 °F 53% 29.89 in 10.0 mi South 11.5 mph 16.1 mph N/A   Clear
4:15 PM 98.6 °F 117.2 °F 78.8 °F 53% 29.87 in 10.0 mi SW 13.8 mph - N/A   Scattered Clouds
4:35 PM 98.6 °F 117.2 °F 78.8 °F 53% 29.87 in 10.0 mi South 9.2 mph - N/A   Scattered Clouds
4:55 PM 98.6 °F 117.2 °F 78.8 °F 53% 29.86 in 10.0 mi SSW 12.7 mph - N/A   Scattered Clouds
5:15 PM 98.6 °F 117.2 °F 78.8 °F 53% 29.85 in 10.0 mi SSW 10.4 mph - N/A   Clear
5:35 PM 98.6 °F 117.2 °F 78.8 °F 53% 29.85 in 10.0 mi SSW 11.5 mph 17.3 mph N/A   Clear
5:55 PM 98.6 °F 114.4 °F 77.0 °F 50% 29.85 in 10.0 mi SSW 16.1 mph 20.7 mph N/A   Clear
6:15 PM 98.6 °F 117.2 °F 78.8 °F 53% 29.84 in 10.0 mi SSW 12.7 mph - N/A   Clear
6:35 PM 98.6 °F 117.2 °F 78.8 °F 53% 29.84 in 10.0 mi SW 8.1 mph - N/A   Clear
6:55 PM 98.6 °F 114.4 °F 77.0 °F 50% 29.83 in 10.0 mi SW 9.2 mph - N/A   Clear
7:15 PM 96.8 °F 114.8 °F 78.8 °F 56% 29.82 in 10.0 mi SSW 8.1 mph - N/A   Clear
7:35 PM 96.8 °F 112.2 °F 77.0 °F 53% 29.83 in 10.0 mi SSW 4.6 mph - N/A   Clear
7:55 PM 96.8 °F 114.8 °F 78.8 °F 56% 29.84 in 10.0 mi SSW 3.5 mph - N/A   Clear
8:15 PM 95.0 °F 109.7 °F 77.0 °F 56% 29.84 in 10.0 mi South 5.8 mph - N/A   Clear
8:35 PM 91.4 °F 105.1 °F 77.0 °F 63% 29.84 in 10.0 mi South 5.8 mph - N/A   Clear
8:55 PM 91.4 °F 105.1 °F 77.0 °F 63% 29.85 in 10.0 mi South 6.9 mph - N/A   Clear
9:15 PM 91.4 °F 105.1 °F 77.0 °F 63% 29.85 in 10.0 mi SSE 6.9 mph - N/A   Clear
9:35 PM 91.4 °F 107.2 °F 78.8 °F 66% 29.86 in 10.0 mi SSE 5.8 mph - N/A   Clear
9:55 PM 91.4 °F 107.2 °F 78.8 °F 66% 29.86 in 10.0 mi SSE 5.8 mph - N/A   Clear
10:15 PM 91.4 °F 107.2 °F 78.8 °F 66% 29.86 in 10.0 mi South 8.1 mph - N/A   Clear
10:35 PM 87.8 °F 99.7 °F 77.0 °F 70% 29.85 in 10.0 mi South 8.1 mph - N/A   Clear
10:55 PM 87.8 °F 102.5 °F 78.8 °F 75% 29.85 in 10.0 mi South 8.1 mph - N/A   Clear
11:15 PM 87.8 °F 102.5 °F 78.8 °F 75% 29.86 in 10.0 mi SSE 8.1 mph - N/A   Clear
11:35 PM 87.8 °F 102.5 °F 78.8 °F 75% 29.88 in 10.0 mi South 6.9 mph - N/A   Scattered Clouds
11:55 PM 87.8 °F 102.5 °F 78.8 °F 75% 29.87 in 10.0 mi South 5.8 mph - N/A   Mostly Cloudy